Regional Weather Roundup
Issued by NWS Columbia, SC

Home | Current Version | Previous Version | Text Only | Print | Product List | Glossary On
Versions: 1 2 3 4 5 6 7 8 9 10 11 12 13 14 15 16 17 18 19 20 21 22 23 24 25 26 27
000
ASUS42 KCAE 260410
RWRCAE
REGIONAL WEATHER ROUNDUP
NATIONAL WEATHER SERVICE COLUMBIA SC
1200 AM EDT WED APR 26 2017

NOTE: "FAIR" INDICATES FEW OR NO CLOUDS BELOW 12,000 FEET WITH NO
SIGNIFICANT WEATHER AND/OR OBSTRUCTIONS TO VISIBILITY.

NOT ALL STATIONS ARE QUALITY CONTROLLED BY THE NATIONAL
WEATHER SERVICE. USE DATA WITH CAUTION...ESPECIALLY
DEWPOINT OBSERVATIONS.

SCZ001>056-GAZ040-063>065-077-260500-
...UPSTATE SOUTH CAROLINA...

CITY           SKY/WX    TMP DP  RH WIND       PRES   REMARKS
ANDERSON       CLEAR     64  59  83 CALM      29.76S
LIBERTY        CLEAR     64  59  83 CALM      29.76S
SPARTANBURG    MOCLDY    61  59  94 CALM      29.78S
CLEMSON        CLEAR     66  60  81 CALM      29.77R
GREENVILLE     MOCLDY    67  60  78 NE6       29.78S
GREENWOOD      CLEAR     60  58  92 CALM      29.78S
GREER          MOCLDY    64  60  87 NE3       29.77R
ROCK HILL      CLOUDY    63  59  87 CALM      29.79R
CHESTER        CLOUDY    61  61 100 CALM      29.80R
LAURENS        CLOUDY    64  59  82 S5        29.77S


...CENTRAL SOUTH CAROLINA...

CITY           SKY/WX    TMP DP  RH WIND       PRES   REMARKS
COLUMBIA APT   PTCLDY    64  60  87 CALM      29.78R
COLUMBIA OWENS CLEAR     62  60  93 CALM      29.79S
MCENTIRE ANGB  CLEAR     58  58 100 CALM      29.79S
ORANGEBURG     CLEAR     61  59  93 CALM      29.79S
SUMTER SHAW    CLOUDY    63  60  90 CALM      29.76S
NEWBERRY       CLOUDY    64  61  88 SE3       29.80F
AIKEN          FAIR      59  55  88 CALM      29.81S
BARNWELL       FAIR      63  61  94 CALM      29.79R
MANNING        CLOUDY    59  59 100 CALM      29.79S
CAMDEN         CLOUDY    63  61  94 CALM      29.79S
LANCASTER      MOCLDY    63  63 100 NE5       29.80R
WINNSBORO      CLOUDY    63  59  88 SE6       29.79R


...EASTERN AND COASTAL SOUTH CAROLINA...

CITY           SKY/WX    TMP DP  RH WIND       PRES   REMARKS
N MYRTLE BCH   MOCLDY    63  60  90 W3        29.76S
CONWAY         FAIR      59  57  94 CALM      29.78S FOG
MARION         FAIR      59  57  94 CALM      29.78S
HARTSVILLE     CLOUDY    61  59  94 CALM      29.79S
FLORENCE       CLOUDY    61  60  97 W3        29.78S
DARLINGTON     CLOUDY    63  60  90 CALM      29.79S
CHARLESTON APT PTCLDY    64  61  90 CALM      29.79S
MOUNT PLEASANT FAIR      63  63 100 CALM      29.80S
WALTERBORO     CLEAR     59  59 100 CALM      29.80S
BEAUFORT       CLEAR     67  64  90 SW5       29.79S


...EASTERN GEORGIA...

CITY           SKY/WX    TMP DP  RH WIND       PRES   REMARKS
AUGUSTA BUSH F FOG       61  59  93 CALM      29.77R VSB 1/4
AUGUSTA DANIEL CLEAR     68  58  70 S3        29.78S
THOMSON        CLEAR     61  60  96 CALM      29.83S
WASHINGTON     FAIR      63  63 100 W5        29.78S
CLAXTON        FAIR     N/A N/A N/A CALM      29.80R
SYLVANIA       CLEAR    N/A N/A N/A CALM      29.80R
STATESBORO     CLEAR     63  63 100 CALM      29.80R FOG
SAVANNAH       PTCLDY    67  61  81 NW5       29.79S


...SOUTHERN NORTH CAROLINA...

CITY           SKY/WX    TMP DP  RH WIND       PRES   REMARKS
CHARLOTTE      CLOUDY    64  56  75 E3        29.79S
MONROE         CLOUDY    61  57  87 CALM      29.78S
WADESBORO      MOCLDY    60  57  92 CALM      29.78S
ROCKINGHAM     CLEAR     58  58 100 W5        29.78S
RUTHERFORDTON  CLOUDY    61  61 100 CALM      29.80S
ASHEVILLE      CLOUDY    58  52  80 NW3       29.83R

$$




USA.gov is the U.S. government's official web portal to all federal, state and local government web resources and services.